Miscellaneous Local Product
Issued by NWS North Platte, NE

Home | Current Version | Previous Version | Text Only | Print | Product List | Glossary On
Versions: 1 2 3 4 5 6 7 8 9 10 11 12 13 14 15 16 17 18 19 20 21 22 23 24 25 26 27 28 29 30 31 32 33 34 35 36 37 38 39 40 41 42 43 44 45 46 47 48 49 50
000
AXUS43 KLBF 150010
MISLBF


WESTERN AND NORTH CENTRAL NEBRASKA HOURLY WEATHER ROUNDUP
NATIONAL WEATHER SERVICE NORTH PLATTE NE
700 PM CDT MON AUG 14 2017

NOTE: "FAIR" INDICATES FEW OR NO CLOUDS BELOW 12,000 FEET WITH NO
SIGNIFICANT WEATHER AND/OR OBSTRUCTIONS TO VISIBILITY.

NOTE: STATIONS NOT REPORTING VARIABLES SUCH AS SKY/WEATHER OR
PRESSURE ARE PROVIDED BY RAWS AND APRS NETWORKS AND ARE NOT UNDER
NATIONAL WEATHER SERVICE QUALITY CONTROL.

...OBSERVATIONS IN AND NEAR THE EASTERN PANHANDLE OF NEBRASKA...

CITY           SKY/WX    TMP DP  RH WIND       PRES   REMARKS
PINE RIDGE     CLOUDY    84  62  47 SE16G24   29.75F
GORDON         FAIR      82  61  49 SE16      29.78F
CHADRON        CLOUDY    83  54  36 S7        29.74F
ALLIANCE       CLOUDY    79  60  52 SE6       29.79F
SIDNEY         CLOUDY    86  48  26 SE13      29.84S
$$

...OBSERVATIONS IN NORTHERN NEBRASKA AND FAR SOUTHERN SOUTH DAKOTA...

CITY           SKY/WX    TMP DP  RH WIND       PRES   REMARKS
WINNER         FAIR      80  60  50 E13       29.83F
VALENTINE      MOSUNNY   81  61  50 E15       29.82F
THEDFORD       SUNNY     83  64  52 SE16      29.83R
AINSWORTH      CLOUDY    75  66  72 E9        29.84S
O`NEILL        SUNNY     76  64  66 E10       29.84F
ORD            PTSUNNY   81  61  50 SE9       29.82R
BROKEN BOW     SUNNY     81  64  56 SE13      29.82F
VALENTINE NWR    N/A     80  63  56 SE12        N/A
HALSEY           N/A     83  62  49 SE9G18      N/A
BUTTE            N/A     73  63  71 E8          N/A
CHAMBERS         N/A     78  66  66 E3          N/A
EWING            N/A     76  65  68 E3          N/A
$$

...OBSERVATIONS IN SOUTHWEST NEBRASKA AND FAR NORTHEAST COLORADO...

CITY           SKY/WX    TMP DP  RH WIND       PRES   REMARKS
HOLYOKE        FAIR      86  59  39 SE20      29.83R
IMPERIAL       CLOUDY    81  57  43 S13       29.81R
OGALLALA       SUNNY     89  59  37 SE7       29.79R
NORTH PLATTE   CLOUDY    82  70  66 E16       29.79F
MCCOOK         CLOUDY    79  68  69 E7        29.78S
LEXINGTON      CLOUDY    81  70  68 E9        29.81S
STAPLETON        N/A     81  65  58 E5G12       N/A
GOTHENBURG       N/A     81  64  56 E12         N/A
CALLAWAY         N/A     85  68  57 SE14        N/A
$$

...OBSERVATIONS IN CENTRAL LINCOLN COUNTY AREA...

CITY           SKY/WX    TMP DP  RH WIND       PRES   REMARKS
N.P. AIRPORT   CLOUDY    82  70  66 E16       29.79F
N.P. DOWNTOWN    N/A     82  69  66 E6          N/A
N.P. SOUTHEAST   N/A     82  70  66 MISG        N/A
N.P. HILLCREST   N/A     81  70  68 E18         N/A
$$

...SOME OBSERVATIONS FROM AROUND THE REGION...

CITY           SKY/WX    TMP DP  RH WIND       PRES   REMARKS
DENVER         CLOUDY    79  42  26 N12       29.91R THUNDER
LIMON          CLOUDY    80  54  40 S9        29.92F
ASPEN          CLOUDY    72  44  36 N8        30.08S
LARAMIE        CLOUDY    65  45  48 S9        30.06S
CASPER         CLOUDY    76  44  32 VRB3      29.87R
CHEYENNE       CLOUDY    72  47  40 CALM      29.99S
SCOTTSBLUFF    CLOUDY    79  57  46 W10       29.81R
GRAND ISLAND   SUNNY     82  68  62 E10       29.82S
OMAHA          MOSUNNY   84  62  47 N6        29.80R
SIOUX FALLS    MOSUNNY   72  63  73 NE12      29.84S
PIERRE         SUNNY     75  56  51 E16       29.82R
RAPID CITY     CLOUDY    76  56  49 E32G39    29.71F THUNDER
BISMARCK       CLOUDY    73  59  61 SE7       29.86F
KANSAS CITY    CLOUDY    81  71  71 S7        29.80F
HILL CITY      CLOUDY    92  57  30 S7        29.77S HX  90
WICHITA        MOSUNNY   87  71  58 SE12      29.77F HX  93
DODGE CITY     MOSUNNY   87  60  40 SE16      29.81F
OKLAHOMA CITY  MOSUNNY   85  68  56 SE7       29.80F
DALLAS         PTSUNNY   91  72  53 S5        29.76F HX  98
AMARILLO       SUNNY     82  65  56 S13       29.89R
$$




USA.gov is the U.S. government's official web portal to all federal, state and local government web resources and services.